EW9559 Weather Reports


Display with metric or nautical units.
time (UTC)temp
F
wind
direction
speed
MPH
gust
MPH
rain 1hr
in
rain 24hr
in
rain mn
in
humidity
%
barometer
mb
20260905111531 51 225 0.0 1.0 0.00 0.04 0.01 96 1021.0
20260905110040 51 225 0.0 2.0 0.00 0.04 0.01 96 1020.9
20260905104530 51 225 0.0 0.0 0.00 0.04 0.01 95 1021.0
20260905103033 51 225 0.0 1.0 0.00 0.04 0.01 95 1020.9
20260905101531 51 225 0.0 0.0 0.00 0.04 0.01 95 1020.9
20260905100030 51 225 0.0 1.0 0.00 0.04 0.01 95 1021.0
20260905094529 51 225 0.0 0.0 0.00 0.04 0.01 95 1021.0
20260905093033 52 225 0.0 0.0 0.00 0.04 0.01 95 1021.0
20260905084530 52 225 0.0 0.0 0.00 0.04 0.01 94 1020.8
20260905083032 52 225 0.0 2.0 0.00 0.04 0.01 94 1020.8
20260905081530 52 225 0.0 1.0 0.00 0.04 0.01 94 1020.7
20260905080028 52 225 0.0 1.0 0.00 0.04 0.01 94 1020.6
20260905073032 53 225 0.0 1.0 0.01 0.04 0.01 93 1020.3
20260905071533 53 230 0.0 2.0 0.01 0.04 0.01 93 1020.2
20260905064530 53 247 0.0 0.0 0.00 0.03 0.03 92 1019.9
20260905063034 53 247 0.0 2.0 0.00 0.03 0.03 92 1019.8
20260905061531 53 247 0.0 1.0 0.00 0.03 0.03 91 1020.0
20260905060033 53 247 0.0 1.0 0.00 0.03 0.03 91 1020.1
20260905054603 53 247 0.0 1.0 0.00 0.03 0.03 90 1019.8
20260905053030 53 247 0.0 1.0 0.00 0.03 0.03 90 1019.8
20260905051532 53 247 0.0 1.0 0.00 0.03 0.03 90 1019.8
20260905050029 53 266 0.0 2.0 0.00 0.03 0.03 90 1019.8
20260905044532 53 270 0.0 1.0 0.00 0.03 0.03 89 1019.7
20260905043030 53 270 0.0 1.0 0.00 0.03 0.03 89 1019.6
20260905041530 53 270 0.0 1.0 0.00 0.03 0.03 89 1019.6
20260905034532 54 270 0.0 1.0 0.00 0.03 0.03 87 1019.4
20260905033104 54 270 0.0 0.0 0.00 0.03 0.03 86 1019.1
20260905031529 55 270 0.0 1.0 0.00 0.03 0.03 85 1019.0
20260905030105 55 270 0.0 1.0 0.00 0.03 0.03 83 1018.9
20260905024530 56 270 0.0 1.0 0.00 0.03 0.03 81 1018.9
20260905023042 57 270 0.0 1.0 0.00 0.03 0.03 77 1018.9
20260905021528 58 269 0.0 3.0 0.00 0.03 0.03 75 1018.8
20260905020032 59 251 0.0 3.0 0.00 0.03 0.03 75 1018.7
20260905014532 59 247 0.0 3.0 0.00 0.03 0.03 74 1018.6
20260905011534 61 251 0.0 2.0 0.00 0.03 0.03 73 1018.3
20260905010106 60 256 0.0 3.0 0.00 0.03 0.03 74 1018.2
20260905004532 61 263 0.0 3.0 0.00 0.03 0.03 73 1018.2
20260905001532 61 257 0.0 4.0 0.00 0.03 0.03 75 1017.9
20260904234531 61 241 0.0 3.0 0.00 0.03 0.03 79 1017.9
20260904233029 60 266 0.0 3.0 0.00 0.03 0.03 79 1017.9
20260904230030 62 247 0.0 2.0 0.00 0.03 0.03 69 1017.9
20260904224532 63 236 0.0 4.0 0.00 0.03 0.03 64 1017.9
20260904223031 66 215 0.0 2.0 0.00 0.03 0.03 61 1017.7
20260904221531 66 268 0.0 1.0 0.00 0.03 0.03 62 1017.6
20260904220031 65 290 0.0 1.0 0.00 0.03 0.03 66 1017.6
20260904214532 64 292 0.0 0.0 0.00 0.03 0.03 67 1017.5
20260904213031 63 292 0.0 0.0 0.00 0.03 0.03 66 1017.4
20260904211534 64 292 0.0 0.0 0.00 0.03 0.03 68 1017.4
20260904210028 64 292 0.0 0.0 0.00 0.03 0.03 64 1017.3
20260904204533 66 292 0.0 0.0 0.00 0.03 0.03 61 1017.4
20260904203107 65 299 0.0 0.0 0.02 0.03 0.03 61 1017.4
20260904201530 64 315 0.0 0.0 0.02 0.03 0.03 65 1017.5
20260904200031 64 315 0.0 0.0 0.02 0.03 0.03 65 1017.6
20260904194530 64 287 0.0 1.0 0.02 0.03 0.01 66 1017.8
20260904193029 65 256 0.0 3.0 0.00 0.01 0.01 67 1017.8
20260904191530 64 266 0.0 2.0 0.00 0.01 0.01 68 1018.0
20260904184606 61 270 0.0 1.0 0.00 0.01 0.01 73 1018.1
20260904183105 59 224 0.0 1.0 0.00 0.01 0.01 78 1018.1
20260904180029 58 225 0.0 0.0 0.00 0.01 0.01 80 1018.0
20260904174530 58 225 0.0 0.0 0.00 0.01 0.01 79 1018.1
20260904173031 58 225 0.0 0.0 0.00 0.01 0.01 80 1018.0
20260904171603 57 225 0.0 1.0 0.00 0.01 0.01 82 1018.0
20260904164529 56 225 0.0 0.0 0.00 0.01 0.01 83 1017.9
20260904163103 56 225 0.0 0.0 0.00 0.01 0.01 85 1017.9
20260904161531 56 225 0.0 0.0 0.00 0.01 0.01 87 1017.9
20260904160032 56 225 0.0 0.0 0.00 0.01 0.01 89 1017.9
20260904154529 56 225 0.0 0.0 0.00 0.01 0.01 94 1017.8
20260904153103 53 225 0.0 0.0 0.00 0.01 0.01 96 1017.7
20260904151529 52 225 0.0 0.0 0.00 0.01 0.01 96 1017.5
20260904150029 51 225 0.0 2.0 0.00 0.01 0.01 96 1017.4
20260904144530 50 234 0.0 3.0 0.00 0.01 0.01 96 1017.3
20260904143033 50 270 0.0 1.0 0.00 0.01 0.01 96 1017.2
20260904141602 50 270 0.0 0.0 0.01 0.01 0.01 96 1017.0
20260904134531 49 270 0.0 0.0 0.01 0.01 0.01 95 1016.7
20260904133031 49 270 0.0 0.0 0.01 0.01 0.00 95 1016.6
20260904131529 49 270 0.0 0.0 0.00 0.00 0.00 95 1016.5
20260904130106 49 270 0.0 0.0 0.00 0.00 0.00 95 1016.3
20260904124645 49 270 0.0 1.0 0.00 0.00 0.00 95 1016.3
20260904123029 49 270 0.0 0.0 0.00 0.00 0.00 95 1016.3
20260904121531 49 270 0.0 1.0 0.00 0.00 0.00 94 1016.1
20260904114530 49 270 0.0 1.0 0.00 0.00 0.00 94 1015.9